www.pogodaiklimat.ru

Погода и климат >> Архив погоды >> Австралия >> Западная Австралия >> Аэропорт Аргайл


ПОГОДА в Аэропорту Аргайл

  • Прогноз погоды в Аэропорту Аргайл
  • Монитор погоды в Аэропорту Аргайл

АРХИВ ПОГОДЫ в Аэропорту Аргайл

Время (UTC), дата Ветер
(напр.,м/с)
 
Видим.   Явления Облачность Т
(С)
Тd
(С)
f
(%)
Тe
(С)
Тes
(С)
Комфортность P
(гПа)
Po
(гПа)
Тmin
(С)
Tmax
(С)
R
(мм)
R24
(мм)
S
(см)
16 16.01 ЮЗ 1 н/о 10/0
[]
+30.0 +21.4 60 +38 +38 очень
душно
1005.9 987.6
18 16.01 С 2 н/о н/о +29.2 +21.7 64 +37 +37 очень
душно
1005.6 987.3
19 16.01 С 1 н/о 1/0
[]
+28.2 +23.3 75 +38 +38 очень
душно
1005.7 987.4
21 16.01 СВ 9 н/о н/о +26.3 +22.2 78 +34 +34 очень
душно
1007.9 989.6
22 16.01 СВ 5 н/о н/о +26.8 +20.6 69 +33 +33 очень
душно
1008.9 990.6
00 17.01 СЗ 3 н/о н/о +30.9 +20.8 55 +38 +38 очень
душно
1008.8 990.5
01 17.01 В 1 н/о {туман} н/о +32.7 +18.8 44 +38 +38 очень
душно
1008.6 990.3
03 17.01 Ю 2 н/о н/о +35.7 +19.6 39 +41 +41 опасность
перегрева
1006.7 988.4
04 17.01 Ю 4 н/о н/о +35.8 +20.9 42 +43 +43 опасность
перегрева
1005.6 987.3
06 17.01 В 6 н/о н/о +34.0 +22.4 51 +43 +43 опасность
перегрева
1003.5 985.3
07 17.01 ЮЗ 4 н/о в посл. час дождь {туман} 1/0
[]
+32.8 +22.3 54 +42 +47 опасность
перегрева
1002.6 984.4
10 17.01 Ю 2 н/о 10/0
[]
+31.4 +21.6 56 +40 +40 очень
душно
1004.2 986.0
12 17.01 С 3 н/о н/о +30.6 +22.2 61 +40 +40 очень
душно
1006.1 987.8
13 17.01 С 3 н/о 10/0
[]
+31.3 +22.0 58 +40 +40 очень
душно
1006.4 988.1
15 17.01 З 2 н/о н/о +31.1 +22.1 59 +40 +40 очень
душно
1006.3 988.0
16 17.01 С 2 н/о н/о +30.8 +22.7 62 +40 +40 очень
душно
1005.5 987.2
18 17.01 С 3 н/о н/о +30.0 +22.7 65 +40 +40 очень
душно
1004.6 986.4
19 17.01 С 3 н/о н/о +29.3 +24.0 73 +41 +41 опасность
перегрева
1004.9 986.7
21 17.01 В 4 н/о н/о +28.6 +25.4 83 +42 +42 опасность
перегрева
1007.0 988.7
22 17.01 С 6 н/о в посл. час дождь {туман} 8/8 300 м
[]
+23.7 +22.3 92 +31 +31 очень
душно
1008.4 990.1
00 18.01 З 5 н/о н/о +25.5 +22.2 82 +33 +33 очень
душно
1008.1 989.8
01 18.01 Ю 3 н/о {туман} н/о +26.2 +22.3 79 +34 +34 очень
душно
1007.9 989.6 +23.1
03 18.01 Ю 3 н/о н/о +30.7 +21.2 57 +38 +38 очень
душно
1007.2 988.9
04 18.01 ЮЗ 3 н/о н/о +32.6 +22.1 54 +41 +41 опасность
перегрева
1006.7 988.4
06 18.01 С 3 н/о н/о +34.5 +21.9 48 +43 +43 опасность
перегрева
1004.4 986.2
07 18.01 В 2 н/о н/о +35.5 +21.4 44 +43 +43 опасность
перегрева
1002.8 984.6
10 18.01 С 4 н/о н/о +33.2 +22.6 54 +43 +43 опасность
перегрева
1004.3 986.1
12 18.01 СЗ 3 н/о н/о +31.5 +23.9 64 +43 +43 опасность
перегрева
1006.6 988.3
13 18.01 СЗ 2 н/о н/о +30.9 +23.8 66 +42 +42 опасность
перегрева
1007.3 989.0 +36.9
15 18.01 СЗ 2 н/о н/о +30.1 +24.0 70 +42 +42 опасность
перегрева
1007.3 989.0
16 18.01 штиль 0 н/о н/о +28.7 +24.0 76 +40 +40 очень
душно
1007.1 988.8
18 18.01 С 3 н/о н/о +29.0 +23.0 70 +39 +39 очень
душно
1007.1 988.8
19 18.01 СВ 7 н/о н/о +27.6 +23.0 76 +37 +37 очень
душно
1007.7 989.4
21 18.01 СЗ 3 н/о н/о +27.8 +23.0 75 +37 +37 очень
душно
1008.2 989.9
22 18.01 ЮЗ 4 н/о н/о +28.3 +23.7 76 +39 +39 очень
душно
1008.3 990.0
00 19.01 Ю 4 н/о н/о +31.9 +22.3 57 +41 +41 опасность
перегрева
1008.5 990.2
01 19.01 ЮВ 2 н/о 10/0
[]
+33.2 +21.4 50 +41 +49 опасность
перегрева
1008.9 990.6 +25.5
03 19.01 СВ 3 н/о н/о +35.8 +21.6 44 +44 +44 опасность
перегрева
1008.0 989.7
04 19.01 С 3 н/о н/о +35.2 +22.2 47 +44 +44 опасность
перегрева
1007.3 989.0
06 19.01 СВ 4 н/о н/о +36.6 +20.8 40 +43 +43 опасность
перегрева
1005.7 987.4
07 19.01 СВ 4 н/о н/о +36.6 +20.0 38 +42 +42 опасность
перегрева
1004.4 986.2
10 19.01 СВ 3 н/о н/о +34.4 +19.6 42 +40 +40 очень
душно
1005.6 987.3
12 19.01 С 4 н/о н/о +33.8 +20.6 46 +41 +41 опасность
перегрева
1007.4 989.1
13 19.01 С 4 н/о н/о +33.4 +20.9 48 +41 +41 опасность
перегрева
1007.9 989.6 +37.5
15 19.01 С 3 н/о н/о +32.3 +21.8 54 +41 +41 опасность
перегрева
1007.9 989.6
16 19.01 С 2 н/о 10/0
[]
+31.8 +22.2 57 +41 +41 опасность
перегрева
1007.3 989.0
18 19.01 штиль 0 н/о н/о +31.4 +22.4 59 +41 +41 опасность
перегрева
1006.2 987.9
19 19.01 З 2 н/о 10/0
[]
+31.0 +23.1 63 +41 +41 опасность
перегрева
1005.7 987.4
21 19.01 С 2 н/о н/о +30.5 +23.4 66 +41 +41 опасность
перегрева
1007.1 988.8
22 19.01 С 2 н/о 10/0
[]
+30.8 +23.5 65 +42 +42 опасность
перегрева
1007.8 989.5
00 20.01 СЗ 2 н/о н/о +33.9 +22.0 50 +43 +43 опасность
перегрева
1008.7 990.4
01 20.01 Ю 2 н/о н/о +35.7 +21.2 43 +43 +43 опасность
перегрева
1008.8 990.5 +30.2
03 20.01 ЮВ 3 н/о н/о +37.4 +19.3 35 +42 +42 опасность
перегрева
1007.3 989.0
04 20.01 СВ 3 н/о н/о +37.3 +19.7 36 +43 +43 опасность
перегрева
1006.0 987.7
06 20.01 ЮВ 10 н/о н/о +29.4 +22.6 67 +39 +39 очень
душно
1005.4 987.1
07 20.01 З 8 н/о в посл. час дождь {туман} 10/0
[]
+27.4 +23.6 80 +37 +38 очень
душно
1005.4 987.1
10 20.01 СЗ 3 н/о 6/0
[]
+29.5 +23.9 72 +41 +41 опасность
перегрева
1005.5 987.2
12 20.01 СЗ 2 н/о н/о +29.5 +23.7 71 +40 +40 очень
душно
1006.5 988.2
13 20.01 Ю 3 н/о 5/0
[]
+29.3 +23.5 71 +40 +40 очень
душно
1007.5 989.2 +39.6
15 20.01 С 2 н/о н/о +28.6 +21.6 66 +37 +37 очень
душно
1007.1 988.8
16 20.01 Ю 1 н/о 5/0
[]
+28.1 +22.1 70 +37 +37 очень
душно
1005.8 987.5
18 20.01 СВ 8 н/о н/о +27.3 +22.9 77 +36 +36 очень
душно
1006.8 988.5
19 20.01 С 4 н/о н/о +25.7 +20.9 75 +32 +32 очень
душно
1006.5 988.2
21 20.01 В 3 н/о н/о +24.9 +21.2 80 +31 +31 очень
душно
1007.4 989.1
22 20.01 ЮЗ 2 н/о н/о +25.4 +21.5 79 +32 +32 очень
душно
1007.7 989.4
00 21.01 ЮВ 2 н/о н/о +28.1 +22.8 73 +37 +37 очень
душно
1007.9 989.6
01 21.01 ЮВ 2 н/о 10/0
[]
+29.4 +22.1 65 +38 +46 очень
душно
1007.7 989.4 +24.6
03 21.01 В 1 н/о н/о +32.0 +21.8 55 +41 +41 опасность
перегрева
1007.2 988.9
04 21.01 С 4 н/о н/о +33.2 +22.3 53 +42 +42 опасность
перегрева
1006.4 988.1
06 21.01 СВ 4 н/о н/о +34.4 +18.4 39 +39 +39 очень
душно
1004.8 986.6
07 21.01 СВ 4 н/о н/о +35.1 +19.5 40 +40 +40 очень
душно
1003.6 985.4
10 21.01 СВ 3 н/о н/о +32.8 +21.0 50 +40 +40 очень
душно
1004.2 986.0
12 21.01 С 4 н/о н/о +32.3 +22.1 55 +41 +41 опасность
перегрева
1006.2 987.9
13 21.01 СВ 5 н/о 10/10 1000 м
[]
+26.6 +21.8 75 +34 +34 очень
душно
1009.6 991.3 +35.7
15 21.01 З 2 н/о н/о +25.3 +24.1 93 +35 +35 очень
душно
1008.9 990.6
16 21.01 штиль 0 н/о в посл. час дождь {туман} 10/0
[]
+25.3 +23.7 91 +34 +34 очень
душно
1007.7 989.4
18 21.01 С 3 н/о н/о +25.7 +23.7 89 +35 +35 очень
душно
1005.5 987.2
19 21.01 В 2 н/о {туман} 10/10 100 м
[]
+25.3 +23.9 92 +35 +35 очень
душно
1006.0 987.7
21 21.01 ЮВ 1 н/о н/о +25.1 +23.9 93 +34 +34 очень
душно
1006.4 988.1
22 21.01 В 2 н/о н/о +25.5 +23.9 91 +35 +35 очень
душно
1006.9 988.6
00 22.01 В 2 н/о н/о +29.2 +24.1 74 +41 +41 опасность
перегрева
1007.8 989.5
01 22.01 С 1 н/о в посл. час дождь {туман} н/о +29.8 +23.0 67 +40 +40 очень
душно
1007.5 989.2 +24.8
03 22.01 СВ 4 н/о н/о +32.8 +22.3 54 +42 +42 опасность
перегрева
1006.6 988.3
04 22.01 СВ 4 н/о 1/1 1000 м
[]
+33.3 +21.8 51 +42 +55 опасность
перегрева
1006.2 987.9
06 22.01 С 5 н/о н/о +34.6 +21.6 47 +43 +43 опасность
перегрева
1004.7 986.5
07 22.01 С 5 н/о н/о +35.0 +20.9 44 +42 +42 опасность
перегрева
1003.6 985.4
10 22.01 СВ 3 н/о 3/0 2000 м
[]
+33.3 +20.1 46 +40 +40 очень
душно
1004.3 986.1
12 22.01 СВ 3 н/о н/о +31.8 +21.6 55 +40 +40 очень
душно
1005.0 986.8
13 22.01 С 2 н/о н/о +32.2 +22.9 58 +42 +42 опасность
перегрева
1005.7 987.4 +35.9
15 22.01 С 6 н/о н/о +30.8 +23.7 66 +42 +42 опасность
перегрева
1005.6 987.3
16 22.01 С 7 н/о н/о +29.6 +24.2 73 +41 +41 опасность
перегрева
1005.3 987.0
18 22.01 С 4 н/о н/о +28.6 +23.3 73 +39 +39 очень
душно
1005.7 987.4
19 22.01 С 4 н/о н/о +28.2 +23.3 75 +38 +38 очень
душно
1005.8 987.5
21 22.01 штиль 0 н/о н/о +27.4 +23.6 80 +37 +37 очень
душно
1006.8 988.5
22 22.01 штиль 0 н/о н/о +27.4 +24.3 83 +38 +38 очень
душно
1007.4 989.1
00 23.01 ЮВ 3 н/о н/о +29.0 +24.6 77 +41 +41 опасность
перегрева
1007.6 989.3
01 23.01 СВ 3 н/о 10/10 600 м
[]
+30.5 +23.7 67 +42 +42 опасность
перегрева
1007.4 989.1 +27.1
03 23.01 СВ 5 н/о н/о +33.5 +23.2 55 +44 +44 опасность
перегрева
1006.1 987.8
04 23.01 СВ 5 н/о ясно +34.7 +22.7 50 +44 +55 опасность
перегрева
1005.4 987.1
06 23.01 С 5 н/о н/о +33.0 +23.0 56 +43 +43 опасность
перегрева
1003.4 985.2
07 23.01 С 5 н/о н/о +32.0 +23.8 62 +43 +43 опасность
перегрева
1003.1 984.9
10 23.01 С 5 н/о 1/0
[]
+31.5 +23.1 61 +42 +42 опасность
перегрева
1004.1 985.9
12 23.01 С 6 н/о н/о +30.1 +23.5 68 +41 +41 опасность
перегрева
1005.9 987.6
13 23.01 С 5 н/о 10/0
[]
+29.6 +23.8 71 +41 +41 опасность
перегрева
1006.5 988.2 +35.7
15 23.01 С 6 н/о н/о +28.7 +23.6 74 +39 +39 очень
душно
1006.2 987.9

 

Местоположение метеостанции Аэропорт Аргайл (Западная Австралия, Австралия): широта -16.63 долгота 128.45 высота над уровнем моря 165 м.

В архиве по умолчанию представлена погода в Аэропорту Аргайл за последнюю неделю. Архивные данные за месяц целиком и за предыдущие месяцы, начиная с января 2011 года, Вы можете получить, выбрав интересующий диапазон дат из раскрывающегося списка и нажав кнопку "Ввод!".


*Определитесь, кто Вы:
робот инопланетянин человек

Внимание! Время в таблицах - всемирное. Для получения местного времени необходимо прибавить поправку, которая равна 8 ч.

Смотрите также архив погоды в соседних городах и на ближайших метеорологических станциях:

Погода в Кунунарре (Западная Австралия, Австралия) (99 км)
Погода в Уиндеме (Западная Австралия, Австралия) (130 км)
Погода в Холс Крик (Западная Австралия, Австралия) (197 км)
Погода в Виктория-Ривер (Северная территория, Австралия) (275 км)
Погода в Порт Китс (Северная территория, Австралия) (289 км)
Погода в Ладжаману (Северная территория, Австралия) (299 км)
Погода в Манбуллу Ксиро (Северная территория, Австралия) (313 км)
Погода в Калумбуру (Западная Австралия, Австралия) (323 км)
Погода в Фицрой-Кроссинге (Западная Австралия, Австралия) (352 км)
Погода в Трускотте (Западная Австралия, Австралия) (360 км)

Пояснения к столбцам:

Ветер - указаны скорость ветра в м/с - средняя за 10 мин, порывы в срок и между сроками (в фигурных скобках) и направление, откуда дует ветер: С - северный, СВ - северо-восточный, В - восточный, ЮВ - юго-восточный, Ю - южный, ЮЗ - юго-западный, З - западный, СЗ - северо-западный.
Видимость - горизонтальная дальность видимости в метрах или километрах. При видимости от 1 до 10 км при отсутствии осадков обычно наблюдается дымка, при ухудшении видимости до 1 км и менее - туман. В сухую погоду видимость может ухудшаться дымом, пылью или мглою.
Явления - указаны атмосферные явления, наблюдавшиеся в срок или в последний час перед сроком; фигурными скобками обозначены явления, наблюдавшиеся между сроками (за 1-3 часа до срока); квадратными скобками обозначены град или гололедные отложения с указанием их диаметра в мм.
Облачность - указаны через наклонную черту общая и нижняя облачность в баллах и высота нижней границы облаков в метрах; квадратными скобками обозначены формы облаков: Ci - перистые, Cs - перисто-слоистые, Cc - перисто-кучевые, Ac - высококучевые, As - высокослоистые, Sc - слоисто-кучевые, Ns - слоисто-дождевые, Cu - кучевые, Cb - кучево-дождевые. Подробнее классификацию облаков см. в Атласе облаков (PDF).
T - Температура воздуха - температура, измеренная на высоте 2 м над землей.
Td - Температура точки росы - температура, при понижении до которой содержащийся в воздухе водяной пар достигнет насыщения.
f - Относительная влажность воздуха - влажноcть воздуха, измеренная на высоте 2 м над землей.
Te - Эффективная температура - температура, которую ощущает одетый по сезону человек в тени. Характеристика душности погоды. При расчете учитывается влияние влажности воздуха и скорости ветра на теплоощущения человека.
Tes - Эффективная температура на солнце - температура, которую ощущает человек, с поправкой на солнечный нагрев. Характеристика знойности погоды. Зависит от высоты солнца над горизонтом, облачности и скорости ветра. Ночью, в пасмурную погоду, а также при ветре 12 м/с и более поправка равна нулю.
P - Атмосферное давление - приведенное к уровню моря атмосферное давление.
Po - Атмосферное давление - измеренное на уровне метеостанции атмосферное давление.
Tmin - Минимальная температура - минимум температуры воздуха на высоте 2 м над землей.
Tmax - Максимальная температура - максимум температуры воздуха на высоте 2 м над землей.
R - Количество осадков - Количество выпавших осадков за период времени, мм. При наведении курсора мыши на число - период времени, за который выпало указанное количество осадков.
R24 - Количество осадков - Количество выпавших осадков за 24 часа, мм.
S - Снежный покров - Высота снежного покрова, см. При наведении курсора мыши на число - состояние снежного покрова и степень покрытия местности в баллах.